Wind_Speed
36 36 42 47 48 46 43 40 35 29 24 23 20 17 18 20 21 20 19 19 20 22 26 27 25 23 19 16 25 37 38 37 34 27 24 22 20 20 20 20 18 16 14 13 12 12 10 9 7 7 8 9 11 11 10 10 9 8 8 8 8 8 8 8 7 6 5 5 5 4 4 5 5 5 5 5 6 6 7 8 10 11 12 12 13 14
37 42 49 49 44 42 42 39 33 30 26 23 22 20 20 21 21 22 24 22 19 22 26 26 26 24 20 19 22 34 44 41 33 27 26 26 25 24 22 20 18 17 16 14 14 15 12 10 9 8 9 9 10 11 12 12 10 8 7 7 7 7 7 6 5 4 4 3 3 3 4 5 6 6 6 7 7 8 9 10 11 12 13 14 15 15
40 48 49 43 41 39 39 39 33 29 28 26 25 24 24 22 21 23 25 25 21 22 26 27 27 24 21 21 20 30 42 38 31 28 27 28 28 25 23 21 18 17 17 16 16 16 14 11 10 10 9 9 9 10 11 11 10 9 7 7 6 5 6 4 3 2 2 3 3 4 5 6 7 8 8 9 9 9 10 11 12 13 14 16 17 17
40 43 44 40 39 38 37 38 35 30 30 30 29 30 30 26 24 24 24 24 24 23 23 26 29 24 18 17 20 30 36 34 32 32 29 28 25 23 22 19 17 17 16 16 18 17 15 13 11 10 10 10 9 9 9 9 9 9 7 6 5 4 3 1 1 2 3 3 4 5 6 6 7 8 9 10 11 11 12 12 13 15 16 16 17 17
36 30 37 42 37 36 37 36 37 34 33 34 34 35 34 30 25 23 19 18 22 25 26 29 25 16 17 22 25 30 32 33 34 32 29 26 23 21 19 17 16 15 15 16 19 18 16 15 13 10 9 9 9 9 8 8 8 8 7 6 5 4 3 1 2 3 4 5 6 6 7 7 8 9 10 11 11 12 12 13 14 15 15 15 15 15
36 23 27 40 39 36 35 36 39 38 35 36 39 38 36 32 26 22 17 14 19 27 33 34 16 8 21 32 29 31 33 34 33 31 29 26 23 20 17 18 18 16 15 15 17 18 18 16 13 10 9 9 10 11 10 10 9 8 7 6 5 4 3 3 3 4 5 6 7 8 9 9 10 10 11 11 11 12 13 13 13 13 13 13 14 15
37 27 23 34 41 38 35 37 40 38 36 39 41 39 36 32 27 24 19 15 21 29 34 35 17 11 20 33 35 37 36 35 34 31 30 27 24 22 19 19 18 17 16 15 15 17 18 17 14 11 9 9 10 10 10 9 8 7 6 5 5 4 4 4 4 5 6 7 8 9 10 10 10 10 11 11 11 12 13 12 11 11 13 14 15 16
38 33 26 29 38 40 38 40 41 39 38 42 41 36 34 33 28 25 22 18 20 26 28 32 26 19 21 30 37 40 38 37 36 33 30 28 25 23 20 18 16 17 17 15 14 16 18 18 16 14 11 10 10 9 8 7 6 6 5 5 5 5 5 6 6 6 7 7 9 10 10 10 10 10 10 11 11 12 11 11 11 12 14 16 17 17
35 34 30 28 35 42 43 42 40 38 40 43 39 33 33 30 24 23 22 20 21 19 19 27 28 18 16 28 34 38 42 39 37 36 31 29 26 23 20 19 18 18 19 17 16 16 18 18 17 17 14 11 9 8 7 7 6 5 5 4 4 5 7 7 8 7 7 8 10 10 10 10 10 10 10 11 11 10 10 11 12 14 15 17 18 18
29 35 31 25 35 44 43 39 37 39 40 39 35 34 33 24 18 18 18 20 21 16 15 28 32 16 10 27 34 35 43 42 38 36 32 29 26 23 22 20 19 21 21 20 18 19 20 20 19 18 16 13 11 8 7 7 7 5 5 5 6 7 8 9 9 8 9 10 11 11 10 10 11 11 11 10 10 10 11 12 13 15 17 18 19 19
24 31 32 28 33 41 40 36 38 40 37 33 30 33 30 21 17 16 18 22 16 11 17 31 40 25 11 25 38 38 41 41 38 35 32 29 28 26 24 21 22 22 22 21 20 20 21 21 20 19 17 15 12 10 9 9 8 7 6 7 8 9 8 8 9 10 11 11 11 11 11 12 12 12 11 10 10 10 11 13 14 16 18 19 21 21
24 25 35 35 31 33 36 37 39 39 36 33 29 29 25 18 17 15 18 21 9 7 22 32 42 33 18 27 41 40 38 38 36 35 33 31 30 29 26 24 24 23 23 24 22 21 21 21 22 21 18 16 13 12 11 11 10 9 9 9 10 9 9 9 10 11 11 11 11 11 12 13 13 11 10 10 10 11 12 13 15 17 18 20 22 24
30 29 33 35 31 31 33 36 38 37 37 37 33 29 19 9 10 10 9 10 8 10 24 34 38 26 19 33 43 39 36 35 33 34 34 32 31 29 27 25 25 25 25 27 25 23 22 22 23 23 19 17 15 13 13 13 12 11 11 11 11 11 11 11 11 10 10 11 12 12 13 12 11 10 10 11 11 12 12 13 15 16 18 20 23 24
31 31 32 34 35 35 36 38 39 39 41 44 42 36 21 8 5 7 5 5 9 10 18 34 36 16 11 28 41 39 34 34 33 32 32 31 30 29 27 27 26 27 27 28 28 25 25 25 25 24 21 19 15 13 14 15 14 13 12 12 12 12 12 11 10 10 10 12 13 13 12 11 10 10 10 11 12 12 13 14 15 16 18 20 21 21
26 25 34 39 38 39 40 40 39 39 41 44 45 38 25 15 8 6 6 5 6 5 12 28 23 7 7 17 33 39 35 36 36 32 31 30 30 30 29 29 28 28 29 30 29 27 26 26 26 25 22 18 16 15 16 16 15 13 12 13 13 12 11 10 10 11 12 12 12 12 11 10 10 10 11 11 12 12 13 14 15 17 18 20 20 18
28 27 36 39 38 39 39 39 38 35 34 39 40 34 27 25 17 8 7 11 12 6 7 12 6 5 11 13 24 34 35 38 37 34 33 32 32 32 31 31 30 29 29 30 29 28 26 26 26 25 22 18 17 17 17 16 14 13 13 13 12 11 10 10 11 11 12 12 11 11 11 11 10 11 11 12 12 12 13 15 16 17 18 18 18 17
25 28 35 35 35 39 36 37 40 35 32 34 36 37 35 30 21 10 5 12 15 7 4 6 8 14 18 13 20 30 33 38 38 36 35 33 34 34 33 32 30 29 30 30 29 28 27 26 26 25 22 18 17 16 16 14 13 13 13 12 11 11 10 11 11 11 11 11 11 11 11 11 11 11 11 11 12 13 14 15 16 17 17 16 16 16
19 22 33 35 32 37 36 33 38 39 34 30 35 43 36 22 21 17 5 5 7 4 4 9 14 23 21 15 23 30 32 37 38 36 36 34 35 34 33 32 29 28 29 29 29 28 27 26 26 24 21 18 17 16 15 14 13 12 12 11 11 11 10 10 10 10 10 10 10 11 11 12 13 12 11 11 12 13 14 15 16 16 16 16 16 15
19 16 24 33 31 31 34 34 37 41 38 32 34 40 30 16 19 22 9 3 4 3 2 8 17 24 21 22 33 34 32 36 38 37 37 37 36 35 34 32 30 29 28 27 27 27 26 25 23 19 18 18 17 16 14 13 12 12 11 11 11 11 10 10 9 9 10 10 11 11 12 13 13 12 12 12 12 13 13 14 15 16 16 16 16 15
19 13 15 29 32 29 34 38 41 41 40 38 32 31 31 22 20 24 17 7 6 5 3 7 11 14 16 25 36 35 32 35 38 39 39 39 38 37 35 33 32 29 26 26 27 27 27 25 20 17 17 18 17 15 14 12 12 12 12 12 11 11 10 10 9 9 10 11 11 12 13 13 14 13 13 12 12 13 13 14 14 15 16 16 16 16
19 15 13 23 30 31 36 40 44 43 41 42 34 28 33 28 20 23 22 15 8 7 4 4 5 11 17 24 32 34 33 34 37 40 40 39 38 37 35 33 31 28 26 27 27 27 27 22 18 18 18 17 16 15 14 13 12 12 12 12 11 11 10 10 9 9 11 12 13 14 14 14 14 14 14 13 13 13 13 14 15 15 16 16 16 16
20 16 17 20 24 33 41 40 42 44 41 41 37 29 31 32 22 14 13 16 13 10 11 9 4 9 18 22 27 31 32 33 35 37 38 39 37 36 35 32 29 27 26 26 27 28 25 20 19 19 18 18 17 15 14 13 13 12 12 12 11 11 11 10 10 10 12 13 14 15 15 15 15 15 15 15 15 15 15 16 16 17 17 17 17 17
22 16 19 22 19 27 38 37 36 40 40 39 37 29 26 31 30 16 8 12 12 10 15 14 5 6 18 23 25 27 31 33 33 34 36 37 36 35 33 29 26 24 24 26 27 26 22 19 20 20 19 18 16 15 14 13 13 12 12 12 11 11 11 11 11 12 13 14 15 15 15 15 16 16 16 16 17 17 17 17 18 18 19 19 19 18
26 19 19 22 20 18 26 32 33 37 38 35 35 33 23 23 32 27 15 14 14 13 14 9 4 5 17 23 26 28 32 34 34 35 36 36 35 32 29 26 24 24 24 25 25 22 20 21 22 21 20 18 16 15 14 13 12 12 12 11 10 10 11 12 13 13 14 15 15 16 16 16 17 17 17 17 18 18 19 19 20 20 20 20 20 20
26 21 18 17 12 8 14 24 27 32 36 32 32 36 26 17 25 29 23 17 14 16 20 11 4 9 18 22 26 28 32 34 34 35 35 34 33 31 28 25 22 22 23 22 20 19 21 22 22 22 20 17 16 15 14 13 13 13 12 11 10 10 11 13 14 15 15 15 16 16 16 17 17 18 19 19 19 20 20 20 21 21 21 21 21 21
24 20 18 14 8 5 8 11 17 27 35 34 32 37 33 22 19 23 24 20 13 15 22 16 11 18 22 21 25 28 31 35 35 34 32 30 28 28 27 25 22 20 20 19 18 20 21 22 22 21 19 17 15 14 14 14 14 13 12 10 10 11 12 13 15 16 16 16 17 17 18 18 18 19 20 21 21 22 22 22 22 22 22 22 22 22
24 22 19 15 14 13 8 5 10 20 27 32 32 33 33 25 18 20 23 22 19 17 17 16 19 28 29 25 26 29 31 33 35 35 33 29 26 26 26 24 22 20 18 18 19 19 19 21 21 19 17 15 14 14 15 15 13 12 10 10 10 11 12 13 15 16 16 17 18 18 19 20 20 21 22 23 23 23 23 23 23 23 23 23 23 23
25 27 24 17 18 21 15 5 6 11 15 24 28 29 29 23 17 20 23 23 23 17 12 15 23 28 31 31 30 31 31 32 34 34 33 31 28 26 24 22 21 20 18 18 18 18 19 20 19 17 15 14 14 15 15 14 13 11 10 10 10 11 12 14 15 15 16 17 18 19 20 21 22 23 23 24 24 23 23 23 23 23 24 24 24 24
26 29 27 17 13 20 22 13 8 8 7 15 23 25 26 20 14 19 21 20 23 18 12 19 22 20 26 31 29 29 30 30 31 32 31 30 28 26 23 23 22 20 19 18 18 19 20 19 17 15 15 15 15 16 16 15 14 13 11 11 11 12 13 14 15 16 17 18 19 20 20 21 22 23 23 24 24 24 25 25 25 25 25 26 26 26
24 29 26 17 11 15 18 17 14 8 5 11 18 22 26 23 15 17 18 15 17 16 13 18 21 18 22 27 28 29 29 29 29 30 29 27 25 24 24 24 23 21 19 19 20 21 20 19 18 17 17 17 17 17 17 16 15 14 12 11 11 12 13 14 15 15 16 17 18 19 20 21 22 22 23 24 25 25 26 26 26 26 26 26 26 26
26 29 23 17 12 11 11 15 16 11 8 10 14 17 23 24 18 15 19 19 17 15 15 22 27 27 28 30 30 30 31 30 29 27 25 24 23 24 25 25 23 21 21 22 22 22 21 20 19 18 18 19 19 18 17 15 13 12 11 11 11 12 12 13 14 14 15 16 17 19 20 21 22 23 24 24 25 25 25 26 26 26 26 26 26 26
28 24 20 18 13 9 8 10 10 10 10 11 13 14 16 18 15 15 20 21 19 19 25 31 31 29 31 32 32 32 32 30 29 26 24 23 23 24 24 23 21 21 23 25 24 23 22 20 19 19 19 18 17 15 13 12 11 10 10 9 10 11 12 13 13 14 15 16 18 19 20 21 22 23 24 24 24 25 25 26 26 27 27 27 28 28
31 23 18 18 13 9 8 9 7 9 8 6 10 13 14 15 15 15 18 20 18 19 23 26 23 22 26 30 30 31 33 32 29 26 23 22 22 21 20 20 20 23 25 25 23 21 19 18 17 17 16 15 13 12 12 11 11 9 8 8 9 11 12 13 14 15 16 17 18 20 21 22 22 23 24 24 25 25 26 27 27 28 28 29 30 30
32 24 18 16 13 11 10 9 7 7 6 4 7 11 14 15 15 15 17 20 19 18 18 18 19 21 26 29 29 28 30 30 28 24 20 17 16 16 19 21 22 24 23 20 18 17 15 15 14 13 13 12 12 12 12 10 9 8 7 8 10 11 13 14 15 16 17 17 18 19 21 22 22 23 24 24 25 26 26 27 27 28 29 30 30 30
29 25 18 13 12 13 12 10 6 3 4 6 7 9 12 14 15 15 16 20 21 18 17 19 20 22 27 31 30 29 30 30 28 25 19 14 13 15 20 23 22 20 18 16 15 14 13 12 12 11 12 11 11 10 10 9 8 7 8 9 10 12 13 14 15 16 17 17 18 19 20 21 22 23 24 24 25 25 26 27 27 28 29 29 30 30
25 23 19 12 12 13 10 7 5 3 3 7 7 8 13 16 16 16 18 23 24 20 20 23 23 23 28 32 33 33 34 33 30 25 20 16 16 18 19 20 19 16 14 13 13 13 12 12 11 10 10 9 9 9 9 8 8 8 9 10 11 12 13 14 15 16 17 17 18 19 20 21 22 23 24 24 25 25 26 27 27 28 29 29 30 30
25 23 20 15 11 11 10 8 6 5 4 7 9 10 16 21 19 18 21 24 24 21 21 24 24 25 29 32 34 35 35 33 29 27 24 20 20 21 19 17 15 14 13 13 13 13 13 12 10 8 8 8 8 9 9 9 9 9 9 10 11 11 12 13 15 16 17 17 18 19 20 20 21 22 23 24 25 25 26 26 27 27 28 28 29 29
26 24 21 15 9 12 14 10 6 3 4 9 12 14 16 18 17 17 19 22 24 22 21 22 23 25 29 33 36 36 34 31 29 29 28 25 24 24 20 16 14 14 13 12 13 14 12 10 8 7 6 7 8 8 9 9 10 9 9 10 11 11 12 13 14 16 16 17 18 19 19 19 20 21 21 22 23 23 24 24 24 25 26 27 28 28
24 21 21 17 12 15 16 10 4 3 5 10 14 17 18 13 13 13 13 18 26 26 24 23 22 24 29 31 32 35 33 30 31 32 29 27 28 25 19 16 16 14 13 13 14 13 11 8 7 6 6 5 6 8 9 9 9 9 10 10 11 11 12 12 14 14 15 16 16 17 17 17 18 18 19 19 20 21 22 23 23 24 25 26 27 28
21 19 18 18 17 18 15 10 6 5 9 14 16 21 24 19 16 13 8 15 28 29 26 24 22 22 25 26 27 31 28 21 22 28 29 29 30 25 18 17 16 14 14 15 13 11 10 8 7 7 5 4 6 8 9 10 10 10 10 10 10 11 12 12 13 12 12 12 13 13 14 15 16 17 17 18 19 20 22 23 23 24 25 26 26 27
18 17 15 16 18 19 17 11 6 5 14 21 20 22 26 21 18 15 10 16 28 29 25 24 21 20 22 23 25 28 24 15 14 20 27 30 29 24 20 18 17 17 17 15 11 11 11 9 8 7 5 5 7 8 10 10 10 10 10 10 10 10 10 9 9 9 9 9 10 11 12 13 15 16 17 18 20 21 22 23 23 24 25 26 26 27
18 16 15 16 19 20 18 13 7 6 16 24 23 23 25 21 18 19 16 17 23 25 23 23 21 18 20 22 23 24 25 21 17 20 26 29 26 23 21 18 17 19 19 14 13 14 12 10 10 10 8 7 8 9 10 11 11 11 10 9 8 7 6 6 6 6 7 8 10 11 12 13 15 16 17 18 19 21 22 22 23 24 25 26 26 26
17 16 17 19 19 17 16 12 7 6 18 26 27 27 28 24 21 21 19 16 20 23 23 24 24 22 21 23 22 23 26 25 21 23 28 27 24 23 21 17 18 21 20 16 15 16 14 11 11 11 10 9 9 9 10 10 10 9 8 6 4 3 2 4 5 7 8 9 10 11 12 13 14 15 17 18 19 20 21 21 22 23 24 24 25 25
18 17 19 21 19 16 16 14 9 11 20 28 29 29 30 28 24 21 16 14 18 22 22 24 26 23 20 21 22 25 28 26 24 27 28 25 24 24 20 17 20 22 20 17 16 17 15 11 11 11 10 9 9 9 9 8 7 6 4 2 1 2 4 5 6 7 8 9 10 11 12 13 14 15 16 17 18 19 20 20 21 22 22 23 23 24
19 17 17 20 20 17 18 17 13 14 21 26 27 28 28 27 25 22 17 14 17 21 21 20 22 21 18 19 23 28 29 27 27 28 26 25 25 23 18 18 21 22 19 17 17 17 14 11 11 11 10 8 7 7 7 6 5 3 2 3 5 6 7 7 7 8 8 9 10 11 12 13 14 15 16 17 17 18 19 20 21 22 23 23 23 23
20 18 16 19 20 17 16 15 13 15 21 23 23 23 24 24 23 22 21 18 17 20 22 21 21 22 21 23 27 29 30 29 29 28 26 26 26 21 17 19 22 21 18 18 18 16 13 11 12 11 9 7 6 6 6 5 5 4 4 6 8 9 9 9 8 8 9 10 11 12 13 14 14 15 15 16 18 19 20 21 22 23 24 24 25 25
19 20 18 19 19 16 15 14 14 17 21 22 21 20 21 24 23 22 22 21 19 21 25 24 23 24 26 27 29 30 30 29 28 27 28 27 24 20 20 22 22 19 17 18 17 15 12 12 12 10 8 6 6 7 7 7 7 7 8 9 10 10 10 9 9 9 9 10 11 12 13 14 14 15 15 17 19 20 21 22 23 24 24 25 26 26
19 21 19 18 18 15 14 15 16 18 21 20 18 17 19 22 23 21 20 18 17 20 23 24 24 25 27 29 30 29 29 29 27 27 27 25 23 22 23 24 21 18 18 18 17 14 13 13 12 10 8 8 9 9 9 9 9 9 9 9 10 11 11 10 9 9 9 10 11 12 13 14 14 15 17 18 20 21 22 23 24 24 25 26 27 27
17 18 17 18 18 17 15 16 17 19 20 20 18 17 17 18 18 18 18 17 17 19 21 22 24 24 26 28 30 29 29 29 28 26 25 24 25 25 23 20 19 18 18 18 16 14 14 13 11 10 10 10 10 10 11 10 10 11 10 10 10 10 10 10 10 10 10 11 12 13 14 15 15 16 17 19 20 21 22 23 24 25 26 27 27 27
14 15 17 18 18 17 15 16 17 16 16 18 19 18 17 17 15 16 18 19 20 21 22 24 25 25 25 28 29 28 27 28 28 27 25 23 23 21 18 18 18 18 17 17 16 16 15 13 12 12 11 10 11 11 11 12 13 13 12 12 12 12 11 11 11 11 11 12 12 13 14 15 16 17 17 19 20 21 22 23 24 25 26 27 27 28
12 11 12 11 10 10 10 12 15 13 10 13 18 19 18 18 17 17 19 21 22 23 24 25 26 27 28 29 28 25 24 24 24 25 23 20 19 19 19 20 20 18 18 18 17 16 14 14 14 13 11 10 11 11 12 13 14 13 13 13 13 13 12 12 12 12 12 12 13 13 14 15 16 16 17 18 19 21 22 23 24 24 25 26 27 27
Wind_Direction
192 201 205 207 208 205 202 205 212 212 207 209 213 220 223 224 226 219 215 214 208 217 221 215 220 220 217 215 197 194 197 197 191 186 188 191 195 203 207 208 215 223 226 222 216 213 209 197 179 158 156 154 155 154 146 140 137 137 140 139 140 140 136 129 117 108 109 105 92 70 41 26 20 10 2 354 346 334 323 319 317 313 309 306 304 304
195 206 210 208 208 206 203 206 210 209 205 208 214 217 219 224 228 217 212 214 212 221 224 217 219 221 220 222 210 199 198 197 196 195 194 192 191 195 204 211 215 223 224 217 213 215 213 204 184 166 163 154 150 152 148 146 147 147 148 144 142 139 137 136 124 112 107 93 65 39 10 358 353 341 337 336 331 327 320 316 313 307 304 304 303 304
203 211 211 207 208 206 204 207 208 207 206 208 211 216 220 221 222 220 216 215 216 225 225 218 218 219 219 228 228 207 199 197 198 202 199 193 192 193 202 213 218 223 221 214 216 218 213 205 189 172 170 165 152 151 153 155 158 158 158 156 150 140 137 141 126 94 56 32 7 355 345 335 329 321 316 313 309 310 310 311 309 305 304 304 303 303
207 215 212 206 207 206 205 207 206 206 208 207 210 219 220 215 220 226 220 215 219 227 228 220 216 216 210 202 201 197 196 195 191 192 193 190 193 197 200 209 219 223 222 219 221 218 209 202 193 177 171 169 157 154 159 161 165 165 162 157 153 146 140 136 39 3 344 343 337 330 326 318 313 310 306 303 299 298 303 309 309 306 304 302 301 302
209 217 212 206 206 206 206 206 204 206 210 209 210 219 218 212 221 226 218 218 222 228 232 221 208 198 186 173 178 187 191 193 190 188 188 186 191 195 196 205 212 218 222 226 225 219 212 206 201 191 176 170 167 165 168 166 166 166 164 163 165 171 175 207 297 311 312 314 317 316 315 311 308 307 305 305 304 302 306 309 307 302 299 300 302 303
212 214 211 207 204 204 206 206 205 205 212 213 209 213 214 211 220 226 226 235 227 225 226 217 193 135 178 181 186 196 192 189 188 190 190 185 188 190 196 204 202 207 217 224 228 224 219 211 207 205 186 177 176 174 176 174 172 174 175 185 189 196 212 226 259 282 294 300 307 310 311 311 311 311 311 310 308 305 306 307 301 296 295 300 304 304
214 211 210 207 203 202 205 207 206 203 212 217 209 205 208 213 225 230 233 238 223 218 219 216 196 128 170 182 191 201 196 187 186 190 191 186 186 188 194 201 200 209 218 223 228 229 226 218 215 217 199 186 186 184 188 186 185 190 194 210 220 229 244 253 266 281 292 297 300 304 306 307 307 308 310 309 306 304 306 307 301 297 298 300 301 302
211 208 209 208 203 202 205 208 205 202 212 217 206 201 210 219 228 232 234 237 229 222 217 213 195 158 164 179 188 196 192 185 185 188 191 188 187 189 192 199 209 219 223 228 232 233 234 227 223 224 212 200 197 196 202 204 203 208 213 226 238 254 268 276 282 286 290 293 294 297 299 300 300 301 302 303 305 308 310 311 306 302 302 301 300 300
208 204 204 206 203 203 207 208 204 202 214 217 205 203 217 225 232 236 239 244 248 242 218 200 185 160 164 174 179 188 185 181 184 186 190 190 190 193 195 201 214 222 225 228 232 237 242 239 232 229 223 213 209 207 208 214 216 218 225 239 259 278 287 287 285 286 287 289 290 293 295 295 296 298 301 305 309 313 312 311 309 305 304 302 301 299
211 205 200 205 208 205 206 209 207 206 214 217 210 213 224 234 239 239 246 249 249 246 214 191 181 163 161 173 172 181 183 178 180 186 190 190 190 194 198 206 216 223 226 226 228 236 246 247 239 234 229 220 217 216 214 219 227 230 240 261 281 287 290 288 287 288 289 291 291 294 296 297 301 303 305 311 314 315 315 312 311 307 303 301 301 301
215 209 200 206 213 209 206 208 209 209 213 216 216 222 232 241 240 241 248 246 245 237 219 198 185 176 168 180 180 185 190 186 181 183 186 188 191 194 198 208 217 223 229 230 229 236 246 246 238 234 231 224 222 225 229 233 238 247 260 276 284 284 283 282 283 286 287 290 293 297 301 302 305 307 309 314 317 317 317 313 310 308 305 304 305 306
210 209 205 207 213 212 209 209 212 211 209 213 219 226 233 234 232 242 245 236 226 231 231 206 186 182 181 188 188 188 196 199 194 192 192 192 193 194 197 206 214 222 229 233 233 237 244 243 238 235 232 231 231 233 240 244 247 257 269 275 277 275 276 277 278 282 286 291 296 298 300 303 305 307 310 315 318 319 316 311 309 308 307 309 311 311
211 211 208 206 209 212 211 210 214 215 210 212 219 223 221 204 206 225 236 227 200 226 236 207 186 183 183 189 192 191 195 202 207 210 207 204 201 199 202 208 213 219 227 233 232 235 241 242 241 241 239 239 238 239 245 248 253 261 268 272 272 273 277 279 279 283 288 292 295 295 297 301 303 306 312 315 316 316 313 310 309 309 310 313 316 316
211 218 216 210 210 211 212 209 207 209 208 210 214 215 208 162 153 201 199 223 216 227 227 200 190 189 173 183 192 195 197 198 203 212 213 213 212 211 212 214 215 217 225 232 232 234 239 239 241 244 243 241 239 241 246 250 256 262 266 268 271 275 277 278 280 284 289 290 292 294 295 299 302 307 313 313 312 312 312 312 311 312 315 319 322 324
204 216 212 209 210 208 211 213 207 205 207 209 211 214 211 189 176 195 189 197 202 181 182 185 187 186 147 174 191 194 195 194 196 204 209 213 219 221 222 219 216 218 225 231 232 232 234 235 241 245 243 240 237 238 244 250 256 260 264 267 269 273 272 275 282 285 288 290 291 292 293 297 302 306 308 307 307 309 310 312 314 316 319 323 328 333
207 217 208 204 209 208 209 215 212 207 210 212 212 216 219 206 194 198 211 194 174 138 148 165 144 137 151 166 190 192 193 194 196 202 207 214 220 223 226 223 221 223 227 230 231 232 233 236 242 245 246 244 235 234 241 247 254 257 261 263 262 264 268 276 283 286 287 288 290 292 293 297 300 301 301 301 304 307 309 312 315 318 320 325 332 340
206 219 212 205 210 211 210 213 213 210 209 210 209 214 218 211 198 196 200 183 172 143 127 139 109 137 149 155 185 194 195 194 197 202 207 215 219 222 225 226 226 227 228 230 232 235 238 240 243 246 250 244 231 232 239 243 250 253 254 253 252 258 267 276 281 283 285 285 289 292 292 296 297 296 297 300 303 306 308 312 314 317 319 324 332 341
204 219 215 210 212 211 210 213 215 214 211 208 209 213 213 204 204 213 213 160 160 117 143 166 153 154 153 151 174 190 197 195 196 201 206 212 216 220 223 222 223 226 229 233 234 239 241 243 247 249 246 235 226 229 235 240 244 244 244 245 250 259 267 275 279 279 279 279 282 285 288 292 292 292 295 297 301 304 307 310 313 316 318 324 330 337
208 226 219 213 214 211 209 211 213 214 215 214 214 215 206 185 198 209 211 183 155 104 138 168 164 169 169 163 170 185 199 199 197 200 206 211 215 220 221 219 220 222 227 232 235 240 243 247 252 246 232 224 223 227 230 233 233 231 238 244 250 260 266 273 275 274 274 275 278 282 286 288 288 289 292 294 297 300 305 309 313 316 318 322 327 331
203 231 224 209 213 212 207 206 206 207 211 216 222 220 212 205 204 202 206 209 160 133 160 160 168 192 192 176 176 188 201 202 200 200 205 212 216 221 222 220 221 222 225 232 237 241 246 251 250 233 221 220 221 224 223 220 219 225 237 245 250 259 266 270 270 269 271 274 278 283 284 283 283 285 287 290 293 296 302 308 311 314 316 319 323 326
215 236 234 210 210 210 207 204 205 205 204 209 216 215 210 211 209 202 209 217 182 140 142 142 171 208 203 190 188 191 196 201 203 203 205 211 216 221 223 222 222 223 227 234 238 242 248 251 239 223 218 216 216 219 214 209 215 225 236 243 248 257 262 267 268 267 270 274 279 282 282 282 281 282 285 288 290 292 297 303 307 310 312 314 317 320
222 236 246 231 211 204 206 207 209 208 204 206 210 210 209 207 198 185 201 212 195 166 169 171 163 194 195 195 196 197 196 198 204 207 208 211 215 220 223 224 222 224 230 235 238 244 249 244 228 219 213 208 210 213 209 207 214 222 233 241 247 256 262 268 270 269 271 276 281 282 282 281 281 282 285 287 288 290 292 296 301 306 308 311 313 315
218 235 255 250 225 204 207 211 212 210 209 209 210 212 212 207 198 183 179 196 185 164 172 169 137 172 186 188 193 201 203 199 202 209 211 212 214 218 223 223 222 226 232 236 241 245 243 229 219 214 207 203 205 209 209 209 214 222 234 242 248 257 266 273 273 273 275 278 280 281 281 281 282 283 285 287 288 288 289 291 295 299 303 305 308 310
219 235 244 242 238 220 207 207 210 211 212 211 212 213 214 208 203 200 205 197 172 155 159 144 79 171 182 185 190 198 204 202 202 208 212 213 212 216 220 221 222 226 231 239 243 239 226 214 211 207 202 200 201 207 212 211 214 224 234 241 250 259 268 274 276 277 278 278 279 279 279 281 282 285 286 287 287 287 288 288 290 293 296 300 303 305
213 227 225 219 232 229 196 198 202 206 210 212 211 212 216 220 210 207 210 202 178 167 169 157 119 166 176 185 188 194 203 204 204 209 215 217 214 214 218 220 221 225 232 241 239 223 211 206 204 201 198 198 200 203 210 214 219 227 234 243 251 260 269 274 278 280 279 279 278 278 281 283 284 286 287 287 288 288 288 287 288 290 292 295 298 300
207 220 219 207 204 185 172 190 195 199 208 214 214 212 215 223 222 212 203 193 180 176 176 168 146 152 168 185 189 193 201 202 206 210 213 217 219 218 221 222 220 223 231 236 228 217 208 201 199 199 196 196 199 202 209 218 225 230 237 248 256 265 273 275 278 280 279 280 280 281 284 286 287 288 288 288 289 288 288 287 287 288 290 292 295 297
216 224 223 221 228 215 181 158 192 201 208 210 211 214 214 220 232 223 206 193 178 166 168 177 168 159 166 184 189 192 200 202 206 211 211 212 216 219 223 224 223 226 228 225 222 217 207 198 197 197 194 195 200 207 215 223 230 235 240 249 259 268 272 274 275 277 279 281 283 285 287 289 290 290 290 290 290 289 289 288 288 289 289 291 293 295
212 219 219 228 245 233 218 202 184 194 207 209 211 215 215 223 239 230 215 200 184 165 147 172 180 173 175 185 188 190 197 201 205 211 212 210 210 213 217 220 223 228 224 220 220 212 201 198 197 193 191 196 203 212 221 227 231 234 238 245 257 265 268 271 272 274 279 282 284 287 289 291 292 293 293 293 293 293 293 293 293 293 293 293 294 295
200 209 216 228 241 223 217 221 195 164 179 202 206 211 212 218 230 221 215 204 193 193 182 172 181 188 184 186 190 191 195 200 204 208 210 208 209 211 213 215 219 223 222 220 214 202 197 199 195 188 189 196 205 216 222 226 228 231 236 242 252 262 266 271 274 279 284 286 289 291 292 293 295 296 296 296 296 297 297 296 297 297 296 297 296 295
203 205 214 230 224 200 206 219 215 194 169 181 190 202 210 216 228 223 215 201 191 205 213 186 179 185 184 182 187 194 200 203 203 203 204 204 207 210 213 217 219 221 220 214 202 195 196 196 190 188 193 200 210 219 221 224 227 231 238 248 258 268 275 279 283 287 291 292 294 296 296 297 297 297 297 297 297 297 298 298 298 298 298 297 297 296
209 205 214 227 203 174 192 210 215 218 209 189 185 194 207 218 232 224 203 193 187 190 192 180 170 171 180 185 187 193 201 204 200 197 198 203 210 212 214 216 217 215 209 200 194 192 192 192 191 195 201 207 216 221 224 228 233 240 251 264 273 278 280 283 285 288 292 295 298 299 300 299 299 298 298 298 299 299 300 300 299 299 299 299 298 297
199 200 210 212 183 146 162 184 198 209 205 202 196 194 206 215 217 202 189 192 199 188 173 169 169 173 180 185 189 193 199 200 197 196 199 206 214 216 215 215 211 203 197 192 192 192 193 196 200 203 208 213 218 223 228 236 243 253 262 268 272 274 278 281 285 291 296 300 303 303 303 303 302 302 301 301 301 301 301 302 301 302 302 302 301 301
193 197 200 194 171 138 150 164 178 188 186 199 202 198 207 210 202 193 185 187 201 203 186 180 186 190 183 181 185 191 196 198 196 200 206 210 214 215 212 208 199 193 193 193 194 196 199 202 204 205 209 215 220 226 231 238 246 255 261 267 271 276 283 289 293 298 302 304 305 304 304 304 303 304 304 303 304 304 304 304 304 304 305 304 304 304
189 194 197 190 167 146 149 154 163 177 183 212 214 204 201 197 193 193 186 180 187 204 211 205 205 202 189 182 184 189 193 194 195 201 208 213 217 209 192 188 192 193 196 197 196 197 197 196 198 200 206 215 222 228 235 241 250 261 268 275 281 285 291 295 297 301 303 303 304 303 302 303 302 303 303 304 305 305 306 306 306 306 306 306 306 307
180 180 189 188 161 149 150 154 164 186 201 200 207 208 195 185 191 198 190 181 181 190 201 200 198 197 190 186 190 190 185 186 191 197 197 196 200 191 181 185 193 195 195 194 191 186 181 182 190 198 206 218 226 234 244 252 260 271 277 282 288 292 296 298 299 301 302 302 302 302 301 302 302 302 303 304 305 306 307 307 308 308 308 307 308 308
182 175 177 167 148 152 157 155 168 190 177 167 174 197 187 172 179 192 180 173 177 184 191 192 190 191 189 187 190 189 184 184 187 188 182 177 180 184 186 191 192 187 185 184 178 171 170 178 191 202 212 225 236 245 257 266 270 279 284 289 295 298 300 302 301 302 303 302 301 302 302 303 303 304 305 306 307 308 309 309 310 310 311 311 311 311
194 184 175 158 143 157 157 127 122 142 166 170 162 172 174 162 165 184 179 169 175 183 188 192 188 184 185 187 187 187 186 185 181 174 169 169 177 184 187 187 182 174 171 170 168 167 170 178 191 207 225 240 255 264 271 277 279 284 290 293 299 303 305 304 302 302 302 302 303 304 305 306 307 307 308 309 310 311 312 313 315 315 315 316 316 315
198 194 186 173 156 163 157 127 110 139 200 199 174 159 161 155 156 179 182 172 173 176 182 195 194 184 183 186 188 188 188 185 179 171 167 173 183 187 185 181 176 171 168 168 168 167 168 177 193 213 237 255 271 278 281 284 286 290 296 299 301 304 304 302 300 300 301 302 304 306 308 310 312 313 315 317 318 320 322 324 325 326 326 326 324 323
191 196 197 191 176 174 171 153 138 163 185 193 179 162 165 161 146 158 179 180 176 172 176 191 200 192 186 187 191 192 189 186 183 177 174 181 186 184 182 182 181 179 175 170 167 166 171 185 205 223 237 258 281 288 288 289 290 293 297 299 300 301 300 299 299 299 303 306 309 313 318 322 325 327 330 332 334 337 339 341 341 342 341 339 337 335
182 187 195 194 183 180 181 167 151 165 168 171 171 166 170 172 157 153 188 196 182 175 173 181 195 200 193 190 193 193 191 191 187 181 181 184 183 179 180 183 184 180 174 169 168 175 183 194 212 225 233 264 287 287 284 284 285 289 293 292 292 294 295 297 299 302 312 320 325 330 335 339 343 345 347 350 353 354 355 355 354 354 352 350 349 347
166 172 182 191 186 184 186 174 155 175 171 165 167 171 173 173 172 179 202 194 181 176 173 175 186 200 198 194 194 191 188 192 191 185 184 183 181 180 181 182 183 179 173 175 185 193 196 204 214 217 232 264 276 275 275 276 276 278 281 280 282 287 292 297 304 315 331 344 351 354 356 357 359 2 3 3 4 4 3 1 1 0 359 357 356 355
154 161 168 179 180 180 184 175 151 172 179 173 172 177 180 183 189 193 193 186 183 182 174 168 175 188 196 198 197 189 183 186 191 189 185 184 185 185 181 180 185 183 179 185 196 197 203 213 212 211 224 241 251 258 261 262 264 266 269 273 279 288 301 315 332 349 2 11 15 15 14 13 11 11 11 9 9 9 7 6 5 4 2 1 360 359
160 160 164 172 175 173 171 163 151 185 190 183 179 182 188 192 193 190 184 187 197 196 181 168 167 175 186 192 192 187 184 186 190 188 185 187 190 185 178 181 189 188 189 194 195 198 210 217 213 216 225 230 235 239 241 246 253 258 262 268 277 303 352 9 21 28 29 30 29 27 25 22 19 18 17 17 16 14 12 11 9 8 6 4 2 1
168 165 167 174 178 175 172 177 195 204 194 188 187 190 195 196 192 189 188 193 199 195 182 170 166 169 181 187 183 182 183 185 185 184 186 190 188 181 177 185 192 193 195 197 197 204 215 221 222 228 232 231 230 228 228 232 235 239 244 241 173 92 77 62 54 48 42 40 40 37 34 33 30 28 26 25 24 21 19 17 16 14 13 11 9 6
176 175 175 179 182 186 190 193 198 195 191 192 193 195 200 200 196 197 201 201 195 188 182 175 169 170 182 189 184 180 181 181 181 184 189 191 185 177 178 191 197 197 198 199 203 210 219 227 234 238 241 240 230 219 214 207 198 203 202 149 116 101 92 80 69 61 54 52 51 47 45 43 39 37 35 33 31 29 27 25 23 21 20 18 16 14
185 183 183 188 188 187 189 188 185 186 190 194 195 197 200 201 198 199 199 197 194 189 184 181 181 184 191 193 187 181 179 179 181 185 189 188 182 180 189 200 202 200 199 202 206 212 222 232 238 242 247 239 217 199 185 168 155 151 138 118 106 98 94 86 79 71 64 59 57 53 50 47 44 42 41 39 38 35 32 29 27 25 23 21 20 19
181 181 182 194 193 184 179 178 178 184 189 194 197 198 198 196 192 193 194 192 194 194 191 190 193 196 195 190 183 179 177 178 183 187 187 185 184 189 201 205 202 199 202 206 208 213 224 231 235 240 238 213 180 164 157 149 142 133 121 108 101 97 94 89 82 74 67 63 60 57 54 49 47 46 45 43 41 38 35 32 30 27 25 23 21 21
169 173 180 193 196 191 187 181 177 181 186 192 197 199 197 193 188 188 188 185 185 190 192 193 194 193 188 180 176 176 176 177 183 186 185 186 192 198 202 203 200 200 204 207 208 213 220 225 230 228 207 179 160 154 153 148 138 130 120 110 103 99 95 91 85 76 71 68 65 61 57 51 48 46 45 44 42 38 35 33 30 28 26 24 22 21
172 174 181 191 195 197 198 191 186 185 187 189 191 193 192 188 184 183 179 169 167 175 180 180 181 183 181 173 170 174 177 177 181 186 188 193 197 197 198 199 197 199 203 205 208 211 213 218 218 201 179 166 158 152 148 141 133 128 121 113 106 101 97 94 90 85 80 74 68 64 59 53 48 45 43 42 41 37 34 31 29 28 26 25 23 22
176 182 186 191 196 206 214 208 197 193 195 193 188 185 185 182 178 179 176 168 167 174 178 176 174 173 172 168 168 174 180 181 184 188 190 194 195 194 198 201 200 202 207 208 208 209 207 204 195 180 171 164 156 148 143 137 130 125 121 116 110 103 98 93 89 87 84 78 72 66 61 54 49 45 41 39 39 36 32 30 28 28 27 25 24 23
160 175 184 191 201 218 228 213 195 191 203 202 189 183 182 180 176 177 177 173 172 177 180 179 173 168 165 165 168 175 181 184 188 189 189 192 197 199 201 203 204 208 212 209 206 204 198 188 179 173 168 162 153 145 140 133 128 124 121 116 109 104 100 95 88 83 79 76 71 66 61 57 52 47 42 38 36 35 32 29 27 27 27 26 25 24
Height
3076 3077 3073 3071 3073 3079 3085 3088 3091 3095 3098 3100 3102 3103 3104 3105 3107 3109 3111 3113 3115 3116 3115 3117 3118 3120 3125 3126 3126 3127 3128 3128 3130 3131 3132 3135 3136 3137 3139 3141 3143 3144 3145 3146 3147 3148 3149 3151 3151 3152 3153 3154 3155 3156 3156 3157 3158 3158 3158 3159 3160 3161 3161 3162 3163 3164 3164 3165 3165 3165 3165 3165 3165 3165 3165 3164 3164 3163 3162 3161 3160 3159 3159 3158 3156 3155
3073 3069 3065 3069 3075 3081 3086 3089 3092 3094 3096 3098 3100 3101 3102 3103 3105 3108 3110 3111 3114 3114 3114 3116 3118 3120 3124 3125 3125 3126 3126 3128 3129 3130 3130 3132 3134 3136 3138 3140 3142 3143 3144 3145 3146 3147 3148 3150 3151 3152 3152 3153 3154 3155 3156 3157 3158 3158 3159 3159 3160 3160 3161 3162 3162 3163 3164 3165 3165 3165 3165 3165 3165 3165 3164 3164 3163 3162 3161 3161 3160 3159 3157 3156 3155 3153
3065 3060 3063 3072 3077 3082 3086 3088 3091 3093 3095 3096 3097 3099 3100 3101 3104 3106 3108 3110 3112 3113 3112 3115 3118 3120 3122 3124 3124 3125 3125 3128 3129 3129 3129 3130 3133 3135 3137 3139 3141 3142 3143 3144 3145 3146 3147 3149 3150 3151 3152 3152 3153 3154 3155 3156 3157 3158 3159 3159 3160 3160 3161 3161 3162 3163 3163 3164 3164 3164 3164 3164 3164 3164 3163 3163 3162 3162 3161 3160 3158 3157 3155 3154 3152 3151
3059 3058 3066 3074 3077 3081 3084 3086 3089 3092 3092 3092 3094 3095 3096 3098 3101 3104 3106 3109 3111 3111 3111 3114 3117 3119 3121 3122 3123 3124 3126 3128 3128 3128 3129 3131 3133 3135 3137 3139 3141 3141 3142 3143 3144 3145 3147 3148 3149 3150 3150 3151 3152 3153 3154 3155 3157 3157 3158 3159 3160 3160 3161 3161 3161 3162 3162 3163 3163 3163 3163 3163 3163 3162 3162 3161 3161 3160 3159 3157 3156 3154 3153 3152 3151 3149
3057 3060 3067 3072 3076 3079 3082 3084 3087 3088 3088 3089 3090 3091 3093 3096 3099 3102 3106 3109 3110 3109 3110 3113 3116 3119 3120 3121 3122 3123 3125 3127 3127 3128 3129 3132 3133 3135 3137 3139 3140 3141 3141 3142 3143 3144 3146 3147 3148 3149 3149 3150 3151 3152 3153 3154 3156 3157 3158 3159 3159 3160 3160 3161 3161 3162 3162 3162 3162 3162 3162 3162 3161 3161 3160 3159 3158 3157 3156 3155 3154 3152 3151 3150 3149 3148
3058 3062 3067 3070 3074 3077 3079 3080 3082 3084 3086 3087 3086 3087 3091 3095 3098 3102 3105 3107 3108 3106 3106 3110 3114 3119 3120 3119 3120 3121 3122 3125 3126 3128 3129 3131 3132 3134 3136 3138 3139 3140 3140 3141 3142 3143 3145 3146 3147 3148 3149 3150 3151 3152 3153 3154 3155 3156 3157 3158 3158 3159 3159 3160 3161 3161 3162 3161 3161 3161 3160 3159 3159 3158 3158 3157 3156 3155 3154 3153 3152 3151 3150 3149 3148 3147
3058 3062 3065 3068 3070 3074 3076 3077 3078 3082 3085 3082 3081 3086 3091 3094 3098 3101 3104 3106 3106 3103 3104 3107 3111 3117 3119 3118 3117 3118 3120 3123 3125 3127 3128 3129 3131 3133 3135 3137 3138 3138 3138 3140 3141 3142 3144 3145 3146 3147 3149 3150 3150 3151 3152 3153 3154 3155 3156 3156 3157 3157 3158 3159 3159 3160 3160 3160 3160 3159 3159 3158 3157 3157 3156 3155 3154 3154 3153 3152 3151 3149 3148 3147 3146 3144
3054 3060 3063 3065 3068 3071 3071 3071 3074 3079 3080 3077 3080 3088 3091 3093 3097 3100 3103 3105 3105 3103 3105 3107 3108 3112 3116 3116 3116 3115 3117 3121 3122 3124 3126 3127 3130 3132 3134 3136 3137 3137 3138 3139 3140 3141 3143 3144 3146 3147 3148 3149 3150 3150 3151 3152 3153 3154 3154 3155 3156 3156 3156 3157 3157 3158 3158 3158 3158 3158 3157 3157 3156 3156 3155 3154 3153 3152 3151 3150 3149 3148 3146 3145 3143 3142
3053 3057 3060 3063 3066 3066 3065 3067 3072 3077 3076 3075 3083 3089 3090 3094 3098 3100 3102 3103 3104 3105 3105 3106 3106 3109 3114 3114 3115 3115 3115 3117 3119 3120 3123 3126 3129 3131 3133 3134 3135 3136 3137 3138 3139 3140 3141 3143 3144 3146 3148 3148 3149 3149 3150 3151 3151 3152 3153 3153 3154 3155 3155 3155 3156 3156 3156 3156 3156 3156 3156 3155 3154 3154 3153 3152 3150 3149 3149 3148 3147 3146 3144 3142 3141 3139
3054 3056 3059 3063 3062 3061 3064 3069 3074 3075 3074 3078 3086 3089 3089 3095 3098 3099 3101 3101 3103 3104 3102 3102 3103 3106 3113 3114 3113 3114 3111 3112 3115 3118 3121 3124 3127 3129 3131 3132 3133 3134 3135 3137 3138 3139 3140 3141 3143 3144 3146 3147 3148 3148 3149 3149 3150 3151 3151 3152 3153 3153 3154 3154 3154 3154 3154 3154 3154 3154 3153 3153 3152 3151 3150 3149 3148 3147 3146 3145 3144 3143 3142 3140 3138 3137
3053 3056 3059 3060 3059 3061 3066 3071 3072 3074 3077 3081 3086 3087 3089 3095 3097 3099 3099 3099 3101 3099 3097 3099 3099 3101 3109 3111 3108 3108 3107 3107 3111 3115 3119 3122 3124 3127 3128 3130 3131 3132 3133 3135 3137 3138 3138 3139 3141 3142 3144 3146 3146 3147 3148 3148 3149 3149 3150 3151 3152 3152 3153 3153 3153 3153 3153 3153 3152 3151 3151 3150 3149 3148 3147 3146 3145 3145 3144 3143 3142 3141 3139 3138 3136 3135
3052 3054 3055 3055 3058 3063 3067 3069 3070 3074 3078 3081 3083 3086 3089 3093 3096 3097 3096 3097 3098 3094 3091 3095 3096 3096 3101 3104 3104 3105 3106 3107 3109 3112 3115 3118 3121 3124 3126 3128 3130 3131 3132 3133 3135 3136 3137 3138 3139 3140 3142 3144 3145 3146 3146 3147 3148 3149 3149 3150 3150 3151 3152 3152 3152 3152 3151 3151 3150 3149 3148 3147 3146 3146 3145 3144 3143 3143 3142 3141 3140 3139 3137 3136 3134 3132
3049 3050 3051 3054 3058 3061 3064 3066 3069 3073 3076 3078 3080 3083 3086 3089 3093 3094 3093 3093 3091 3088 3088 3092 3095 3096 3095 3098 3100 3103 3106 3109 3110 3111 3113 3115 3118 3121 3123 3126 3128 3130 3131 3132 3133 3135 3136 3137 3137 3138 3140 3142 3143 3144 3145 3145 3147 3148 3148 3148 3149 3149 3149 3149 3149 3149 3149 3148 3147 3146 3146 3145 3145 3144 3143 3142 3141 3141 3140 3139 3138 3137 3136 3134 3132 3130
3047 3049 3051 3054 3055 3057 3059 3060 3062 3064 3067 3069 3071 3075 3079 3082 3087 3090 3089 3088 3086 3085 3087 3090 3093 3094 3094 3096 3099 3103 3106 3109 3111 3112 3113 3115 3117 3120 3122 3124 3126 3128 3129 3130 3132 3134 3135 3135 3136 3137 3139 3141 3142 3142 3143 3144 3145 3146 3147 3147 3146 3146 3146 3147 3147 3146 3146 3145 3144 3144 3143 3143 3143 3142 3141 3140 3140 3139 3138 3137 3137 3136 3134 3132 3130 3128
3042 3042 3042 3045 3048 3051 3054 3054 3056 3059 3062 3064 3067 3072 3075 3076 3080 3083 3083 3083 3082 3084 3086 3089 3092 3092 3094 3096 3098 3101 3105 3107 3109 3111 3114 3116 3118 3119 3121 3123 3125 3126 3128 3129 3130 3132 3133 3134 3135 3136 3138 3139 3140 3140 3141 3143 3144 3145 3145 3145 3144 3144 3144 3145 3144 3144 3144 3143 3142 3142 3142 3142 3141 3141 3140 3139 3138 3137 3137 3136 3135 3134 3133 3131 3129 3126
3039 3037 3037 3042 3046 3048 3051 3053 3057 3062 3063 3065 3069 3072 3072 3073 3077 3079 3079 3079 3080 3083 3087 3089 3091 3093 3094 3096 3097 3100 3103 3105 3108 3110 3112 3114 3117 3118 3120 3122 3123 3125 3126 3127 3129 3130 3132 3133 3134 3134 3136 3137 3138 3139 3140 3141 3143 3143 3143 3142 3142 3143 3143 3143 3143 3142 3142 3141 3140 3140 3140 3140 3140 3139 3138 3138 3137 3136 3135 3134 3134 3132 3131 3130 3128 3125
3037 3036 3038 3042 3045 3047 3050 3052 3056 3058 3059 3062 3066 3066 3067 3072 3077 3077 3076 3077 3078 3083 3089 3090 3091 3094 3094 3096 3098 3098 3100 3103 3105 3108 3110 3113 3115 3117 3119 3121 3122 3124 3125 3126 3127 3129 3130 3131 3132 3133 3134 3135 3136 3137 3138 3140 3141 3140 3140 3141 3141 3142 3142 3142 3141 3141 3140 3139 3139 3139 3139 3139 3138 3138 3137 3136 3136 3135 3134 3133 3132 3131 3130 3128 3127 3124
3036 3036 3038 3041 3042 3045 3049 3052 3055 3056 3057 3060 3060 3060 3066 3074 3077 3075 3075 3077 3077 3082 3089 3090 3090 3092 3092 3094 3096 3097 3098 3101 3103 3106 3109 3111 3114 3116 3118 3119 3121 3122 3124 3125 3126 3127 3128 3129 3130 3131 3132 3133 3134 3135 3136 3138 3139 3139 3139 3139 3140 3140 3141 3141 3140 3140 3139 3138 3138 3138 3138 3138 3137 3137 3136 3135 3134 3134 3133 3132 3131 3130 3129 3127 3125 3123
3036 3036 3036 3038 3041 3044 3048 3051 3052 3053 3056 3058 3057 3060 3066 3070 3071 3072 3074 3074 3075 3083 3090 3090 3091 3091 3089 3089 3091 3093 3096 3099 3102 3105 3107 3109 3111 3113 3115 3117 3119 3121 3122 3123 3124 3125 3126 3126 3127 3129 3130 3131 3132 3133 3135 3136 3137 3137 3137 3138 3139 3139 3139 3139 3139 3138 3138 3138 3138 3138 3137 3137 3136 3135 3134 3134 3133 3132 3132 3131 3130 3128 3127 3126 3124 3122
3034 3036 3035 3037 3039 3043 3046 3046 3046 3048 3052 3055 3057 3060 3064 3065 3066 3068 3070 3069 3073 3081 3088 3090 3091 3091 3089 3088 3088 3090 3093 3096 3099 3102 3104 3107 3109 3110 3113 3115 3116 3119 3120 3122 3122 3123 3124 3124 3126 3127 3128 3129 3130 3132 3133 3135 3136 3136 3136 3136 3137 3137 3137 3137 3137 3137 3137 3136 3136 3136 3136 3135 3134 3134 3133 3132 3132 3131 3130 3129 3128 3127 3126 3124 3122 3120
3034 3035 3035 3036 3038 3040 3040 3039 3040 3043 3046 3049 3053 3056 3058 3061 3063 3065 3067 3067 3069 3075 3081 3086 3089 3087 3087 3089 3089 3090 3092 3095 3097 3100 3102 3105 3107 3108 3110 3112 3115 3117 3119 3120 3120 3121 3122 3123 3125 3126 3127 3128 3129 3130 3132 3134 3134 3134 3134 3134 3135 3135 3135 3136 3136 3136 3135 3135 3134 3134 3134 3133 3132 3132 3131 3131 3130 3130 3129 3128 3127 3126 3124 3123 3121 3119
3032 3034 3034 3034 3035 3035 3035 3037 3039 3042 3045 3048 3050 3053 3054 3057 3060 3062 3064 3066 3066 3069 3073 3077 3081 3082 3084 3087 3088 3090 3092 3094 3096 3099 3101 3104 3105 3107 3108 3110 3113 3116 3117 3118 3118 3119 3121 3122 3124 3125 3126 3127 3128 3129 3131 3132 3132 3132 3132 3132 3133 3133 3134 3134 3135 3134 3134 3133 3133 3132 3132 3131 3131 3130 3130 3129 3129 3128 3127 3126 3125 3124 3122 3121 3119 3118
3031 3033 3033 3032 3033 3034 3035 3038 3040 3043 3047 3049 3051 3053 3054 3055 3057 3059 3061 3063 3065 3067 3069 3071 3076 3080 3082 3084 3087 3090 3091 3093 3095 3097 3100 3102 3104 3105 3107 3109 3112 3113 3114 3115 3115 3117 3119 3121 3122 3123 3124 3125 3127 3128 3129 3130 3131 3131 3130 3131 3131 3132 3132 3133 3133 3133 3132 3132 3131 3131 3130 3130 3129 3128 3128 3128 3127 3126 3126 3125 3124 3122 3121 3119 3117 3116
3031 3032 3032 3031 3032 3033 3034 3038 3040 3042 3045 3047 3049 3051 3052 3054 3055 3057 3060 3062 3063 3065 3068 3070 3076 3080 3081 3083 3085 3088 3090 3092 3093 3095 3097 3099 3102 3104 3106 3109 3110 3111 3111 3112 3113 3115 3117 3118 3120 3121 3123 3124 3126 3126 3127 3128 3129 3129 3129 3129 3130 3131 3131 3131 3131 3131 3130 3130 3129 3129 3129 3128 3127 3127 3126 3126 3125 3124 3124 3123 3122 3120 3119 3117 3115 3114
3029 3030 3030 3031 3031 3032 3032 3034 3037 3039 3041 3044 3046 3049 3051 3053 3055 3057 3059 3061 3062 3064 3065 3067 3074 3078 3079 3081 3084 3086 3088 3090 3092 3094 3096 3098 3101 3103 3105 3107 3108 3108 3109 3110 3112 3114 3115 3117 3118 3119 3121 3123 3124 3125 3125 3126 3127 3127 3127 3128 3129 3130 3130 3130 3129 3129 3128 3128 3128 3127 3127 3126 3125 3125 3124 3123 3123 3122 3121 3120 3119 3118 3117 3115 3113 3112
3026 3027 3028 3029 3029 3029 3029 3030 3031 3033 3036 3040 3043 3046 3048 3051 3053 3055 3056 3058 3060 3062 3063 3064 3069 3074 3077 3080 3082 3084 3086 3089 3091 3093 3095 3097 3100 3102 3103 3105 3106 3107 3108 3109 3111 3112 3114 3116 3117 3119 3120 3122 3123 3123 3123 3124 3125 3126 3127 3128 3129 3129 3129 3128 3128 3127 3127 3126 3126 3125 3125 3124 3123 3123 3122 3121 3120 3120 3119 3118 3117 3116 3114 3113 3111 3109
3026 3026 3027 3027 3026 3026 3028 3029 3030 3032 3034 3036 3039 3042 3046 3049 3051 3053 3054 3055 3056 3059 3062 3063 3065 3070 3075 3077 3079 3081 3083 3086 3088 3090 3093 3096 3099 3100 3102 3103 3104 3106 3107 3109 3110 3112 3114 3115 3116 3118 3120 3121 3122 3122 3122 3122 3124 3125 3127 3127 3128 3128 3127 3127 3126 3125 3125 3124 3124 3124 3123 3122 3121 3120 3119 3119 3118 3117 3116 3115 3114 3113 3112 3110 3109 3107
3025 3026 3026 3027 3026 3027 3029 3030 3030 3032 3033 3035 3038 3041 3045 3048 3049 3051 3052 3052 3054 3056 3061 3063 3064 3066 3071 3073 3075 3077 3080 3083 3086 3088 3091 3094 3096 3098 3100 3102 3103 3104 3107 3108 3110 3112 3113 3115 3116 3118 3119 3120 3120 3120 3120 3122 3123 3125 3125 3126 3126 3125 3125 3124 3124 3123 3123 3122 3122 3121 3120 3120 3119 3118 3117 3116 3115 3114 3113 3112 3111 3110 3108 3107 3106 3104
3023 3024 3025 3027 3027 3026 3028 3029 3029 3031 3033 3035 3037 3040 3044 3046 3048 3049 3050 3051 3052 3054 3057 3061 3063 3064 3067 3071 3073 3076 3078 3081 3084 3087 3090 3093 3095 3097 3099 3100 3102 3104 3106 3108 3109 3111 3112 3114 3116 3118 3118 3118 3118 3118 3119 3121 3122 3123 3123 3123 3124 3123 3123 3122 3122 3122 3121 3120 3120 3119 3118 3117 3116 3115 3114 3113 3112 3110 3109 3108 3107 3106 3105 3104 3102 3101
3021 3022 3024 3026 3027 3026 3026 3028 3029 3030 3032 3034 3036 3039 3042 3044 3046 3048 3049 3050 3052 3053 3055 3057 3061 3064 3067 3069 3072 3075 3078 3080 3083 3087 3090 3092 3094 3096 3097 3099 3101 3103 3105 3107 3108 3110 3112 3114 3115 3116 3116 3116 3116 3117 3118 3119 3120 3120 3121 3122 3122 3122 3122 3121 3121 3120 3119 3118 3117 3116 3116 3115 3114 3112 3111 3110 3109 3107 3106 3105 3104 3102 3101 3100 3099 3097
3019 3022 3023 3024 3025 3025 3026 3027 3028 3030 3033 3034 3035 3037 3039 3042 3044 3046 3047 3048 3049 3052 3054 3056 3060 3065 3068 3069 3071 3074 3076 3079 3083 3086 3089 3092 3093 3093 3095 3097 3100 3102 3104 3105 3107 3109 3111 3112 3113 3113 3114 3114 3115 3116 3117 3118 3119 3120 3121 3121 3122 3121 3120 3119 3119 3118 3117 3116 3115 3114 3113 3112 3111 3109 3108 3107 3106 3105 3103 3102 3100 3099 3098 3097 3095 3094
3017 3021 3022 3022 3023 3024 3025 3027 3028 3030 3032 3034 3034 3036 3038 3040 3043 3044 3044 3045 3047 3049 3052 3055 3058 3062 3066 3068 3071 3073 3075 3079 3082 3085 3088 3090 3091 3092 3094 3096 3098 3101 3103 3104 3106 3108 3110 3111 3111 3112 3112 3113 3114 3116 3117 3117 3118 3119 3120 3120 3120 3119 3118 3117 3116 3115 3115 3114 3113 3112 3111 3109 3108 3107 3105 3104 3103 3102 3100 3099 3097 3096 3094 3093 3092 3090
3015 3019 3020 3021 3022 3023 3024 3026 3028 3030 3032 3033 3033 3034 3036 3038 3041 3042 3043 3044 3046 3048 3050 3054 3057 3061 3063 3065 3068 3071 3074 3077 3081 3084 3086 3088 3090 3091 3093 3095 3098 3100 3102 3103 3106 3107 3109 3110 3110 3111 3112 3113 3114 3115 3115 3116 3117 3118 3118 3118 3117 3117 3116 3115 3114 3114 3113 3112 3111 3109 3108 3107 3105 3104 3103 3102 3100 3099 3098 3096 3095 3093 3091 3090 3088 3086
3014 3018 3020 3020 3021 3023 3024 3026 3028 3030 3031 3033 3033 3033 3035 3037 3039 3041 3042 3044 3046 3048 3050 3053 3056 3060 3062 3064 3066 3068 3071 3076 3081 3083 3086 3088 3090 3091 3093 3095 3097 3099 3101 3104 3106 3107 3108 3109 3110 3110 3111 3112 3112 3113 3114 3115 3116 3116 3116 3116 3115 3115 3114 3113 3112 3111 3110 3109 3108 3107 3106 3104 3103 3102 3101 3099 3098 3096 3095 3094 3092 3090 3088 3087 3085 3083
3013 3016 3019 3020 3021 3023 3025 3026 3029 3030 3031 3032 3034 3034 3035 3037 3039 3041 3042 3044 3045 3048 3050 3053 3055 3058 3062 3065 3067 3070 3073 3076 3080 3083 3086 3089 3091 3092 3093 3095 3097 3099 3102 3104 3105 3107 3108 3108 3109 3109 3110 3110 3111 3111 3112 3113 3114 3114 3114 3114 3114 3113 3112 3111 3110 3109 3108 3107 3106 3105 3104 3102 3101 3099 3098 3097 3095 3094 3093 3091 3089 3088 3086 3084 3082 3080
3012 3015 3018 3020 3021 3023 3025 3027 3029 3031 3032 3033 3034 3035 3036 3038 3039 3041 3042 3044 3046 3048 3050 3052 3054 3058 3061 3064 3068 3072 3074 3075 3078 3082 3086 3088 3090 3092 3094 3095 3097 3100 3102 3103 3105 3106 3107 3107 3107 3107 3108 3109 3109 3110 3111 3111 3112 3112 3112 3112 3111 3110 3109 3109 3108 3106 3106 3105 3104 3103 3102 3100 3099 3097 3096 3094 3093 3092 3091 3089 3087 3085 3083 3081 3079 3077
3012 3014 3017 3020 3022 3024 3026 3028 3030 3031 3032 3033 3034 3036 3037 3038 3039 3040 3041 3044 3047 3049 3051 3053 3054 3056 3060 3063 3067 3071 3074 3075 3077 3081 3085 3088 3090 3091 3093 3096 3098 3100 3101 3102 3104 3105 3106 3106 3106 3107 3107 3108 3108 3108 3109 3109 3110 3110 3110 3110 3109 3108 3108 3107 3105 3104 3104 3103 3102 3101 3100 3098 3097 3095 3094 3092 3091 3090 3088 3087 3085 3083 3081 3079 3077 3075
3012 3014 3016 3019 3022 3024 3026 3028 3031 3032 3032 3032 3035 3037 3039 3040 3040 3041 3042 3044 3046 3048 3051 3054 3055 3056 3058 3062 3066 3070 3073 3075 3078 3080 3084 3086 3088 3090 3093 3096 3098 3099 3101 3102 3103 3104 3105 3106 3106 3106 3107 3107 3107 3107 3107 3108 3108 3108 3108 3108 3107 3107 3106 3105 3104 3103 3102 3101 3100 3099 3098 3096 3095 3094 3092 3091 3089 3088 3086 3085 3083 3081 3079 3076 3074 3072
3013 3014 3016 3018 3021 3023 3024 3026 3029 3031 3031 3033 3035 3038 3041 3042 3041 3042 3045 3046 3046 3047 3050 3053 3055 3057 3057 3060 3063 3067 3070 3074 3076 3079 3081 3084 3086 3090 3093 3095 3096 3098 3099 3100 3102 3103 3105 3105 3106 3106 3106 3106 3106 3106 3106 3106 3106 3106 3106 3106 3106 3105 3105 3104 3103 3102 3101 3100 3099 3098 3096 3095 3094 3092 3091 3089 3088 3086 3085 3083 3081 3079 3077 3075 3073 3070
3012 3014 3016 3018 3020 3022 3023 3024 3027 3029 3030 3033 3035 3037 3039 3041 3042 3044 3046 3046 3045 3046 3049 3052 3055 3057 3058 3060 3063 3066 3069 3071 3074 3077 3079 3082 3085 3089 3092 3094 3096 3097 3098 3099 3101 3103 3104 3105 3105 3105 3106 3106 3106 3105 3105 3105 3105 3105 3105 3105 3105 3104 3104 3103 3102 3101 3100 3099 3098 3097 3095 3094 3093 3091 3090 3088 3087 3085 3083 3082 3080 3078 3076 3074 3072 3069
3012 3014 3016 3017 3019 3021 3022 3024 3026 3028 3030 3032 3035 3036 3038 3040 3042 3044 3045 3044 3045 3047 3049 3051 3055 3057 3059 3061 3063 3066 3069 3072 3075 3076 3078 3081 3085 3088 3091 3093 3094 3096 3097 3099 3101 3102 3103 3104 3104 3105 3106 3106 3105 3105 3104 3104 3103 3104 3104 3104 3104 3104 3103 3102 3101 3101 3100 3099 3098 3096 3095 3093 3092 3090 3089 3088 3086 3085 3083 3081 3079 3077 3075 3073 3071 3069
3012 3013 3016 3018 3019 3021 3022 3024 3026 3028 3029 3031 3033 3035 3037 3038 3040 3042 3044 3045 3047 3048 3049 3051 3054 3057 3059 3061 3063 3066 3069 3073 3075 3077 3079 3082 3085 3088 3090 3092 3094 3095 3096 3098 3100 3102 3103 3104 3105 3106 3106 3106 3105 3104 3103 3103 3103 3103 3103 3103 3103 3102 3102 3101 3100 3100 3099 3098 3097 3096 3094 3093 3091 3090 3089 3088 3086 3085 3083 3081 3079 3077 3075 3073 3071 3069
3011 3013 3015 3018 3019 3021 3022 3024 3025 3026 3027 3028 3031 3032 3034 3036 3038 3041 3043 3045 3047 3048 3049 3050 3052 3055 3058 3060 3063 3066 3069 3072 3074 3076 3079 3082 3085 3087 3089 3091 3093 3094 3096 3098 3099 3101 3101 3103 3104 3106 3106 3106 3105 3104 3103 3102 3102 3102 3102 3102 3102 3101 3101 3100 3100 3099 3098 3098 3097 3096 3094 3093 3092 3091 3089 3088 3086 3085 3083 3081 3079 3077 3075 3073 3071 3069
3012 3013 3015 3017 3019 3020 3021 3022 3023 3023 3025 3027 3029 3030 3032 3035 3038 3041 3042 3043 3045 3047 3049 3049 3051 3053 3056 3059 3062 3065 3069 3071 3073 3076 3078 3081 3084 3086 3088 3090 3092 3093 3095 3097 3099 3099 3101 3102 3103 3104 3104 3104 3104 3103 3102 3102 3102 3102 3102 3101 3101 3101 3100 3100 3099 3099 3098 3098 3097 3096 3095 3094 3093 3091 3090 3088 3087 3085 3083 3082 3080 3078 3076 3074 3072 3069
3013 3014 3015 3017 3018 3019 3020 3021 3022 3023 3024 3026 3028 3030 3032 3035 3038 3040 3042 3043 3045 3046 3048 3049 3050 3053 3056 3059 3062 3064 3067 3070 3073 3075 3078 3081 3083 3085 3087 3089 3091 3093 3095 3096 3098 3098 3100 3101 3101 3101 3102 3102 3102 3102 3101 3101 3102 3102 3101 3101 3101 3101 3100 3100 3100 3099 3099 3098 3097 3096 3095 3094 3093 3092 3090 3089 3087 3086 3084 3082 3080 3078 3076 3074 3072 3070
3013 3014 3016 3017 3018 3019 3020 3021 3022 3023 3024 3026 3028 3030 3031 3034 3037 3039 3041 3043 3044 3046 3047 3049 3051 3053 3056 3059 3061 3064 3066 3070 3072 3075 3078 3080 3082 3084 3086 3088 3090 3092 3094 3095 3096 3097 3099 3100 3099 3100 3100 3101 3101 3101 3101 3101 3102 3102 3101 3101 3101 3101 3101 3101 3100 3100 3099 3098 3098 3097 3096 3095 3094 3092 3091 3090 3088 3086 3085 3082 3080 3078 3076 3074 3072 3070
3014 3015 3016 3017 3018 3018 3019 3021 3022 3023 3024 3026 3028 3029 3031 3033 3035 3038 3040 3041 3043 3045 3047 3049 3051 3054 3056 3058 3060 3063 3066 3069 3072 3075 3077 3079 3081 3084 3085 3087 3089 3091 3093 3095 3095 3097 3098 3098 3098 3099 3100 3100 3100 3100 3101 3101 3101 3102 3101 3101 3101 3101 3101 3101 3101 3100 3100 3099 3098 3097 3096 3095 3094 3093 3092 3090 3088 3087 3085 3083 3081 3079 3077 3074 3072 3070
3013 3015 3016 3017 3018 3018 3019 3020 3021 3022 3024 3026 3027 3029 3031 3032 3034 3036 3038 3040 3041 3043 3046 3048 3051 3053 3055 3057 3060 3063 3066 3069 3072 3075 3077 3079 3081 3083 3085 3087 3089 3091 3092 3093 3094 3096 3097 3098 3098 3098 3099 3099 3100 3100 3100 3101 3102 3102 3102 3102 3102 3102 3102 3102 3102 3101 3101 3100 3099 3098 3097 3096 3095 3094 3092 3090 3088 3087 3085 3083 3082 3079 3077 3075 3072 3070
3013 3014 3015 3016 3017 3018 3018 3019 3020 3021 3023 3025 3026 3028 3030 3032 3034 3036 3037 3039 3041 3043 3045 3048 3050 3054 3056 3058 3061 3064 3067 3069 3072 3075 3077 3079 3081 3082 3084 3086 3088 3090 3091 3092 3094 3096 3097 3097 3097 3098 3098 3099 3099 3100 3101 3101 3102 3102 3102 3102 3102 3103 3103 3103 3103 3102 3102 3101 3100 3099 3098 3097 3096 3094 3092 3091 3089 3087 3086 3084 3082 3080 3077 3075 3073 3070
3013 3014 3014 3015 3016 3017 3017 3018 3020 3021 3022 3024 3025 3027 3030 3032 3034 3036 3037 3039 3041 3043 3046 3048 3050 3053 3057 3059 3062 3065 3067 3069 3071 3074 3076 3079 3081 3082 3084 3086 3088 3089 3091 3092 3094 3095 3096 3096 3097 3097 3098 3099 3100 3100 3101 3101 3102 3102 3102 3103 3103 3103 3104 3104 3103 3103 3103 3102 3101 3100 3099 3097 3096 3094 3093 3091 3089 3088 3086 3084 3082 3080 3078 3076 3074 3071
3013 3014 3015 3016 3017 3017 3017 3018 3020 3022 3023 3024 3025 3027 3029 3031 3033 3036 3037 3039 3041 3043 3046 3048 3049 3051 3055 3059 3062 3065 3068 3070 3072 3073 3076 3078 3080 3082 3084 3086 3088 3089 3090 3092 3093 3094 3095 3096 3096 3097 3098 3099 3100 3100 3101 3102 3102 3103 3103 3103 3104 3104 3104 3104 3104 3104 3103 3103 3102 3101 3099 3098 3097 3095 3094 3092 3090 3089 3087 3085 3083 3081 3079 3077 3075 3072